Weather History for Ft Lauderdale, FL

Change the Weather History Date:

Friday, August 29, 2014

  Actual Average Record
Temperature  
Mean Temperature 88 °F 84 °F  
Max Temperature 92 °F 90 °F 97 °F (1964)
Min Temperature 83 °F 78 °F 69 °F (1930)
Degree Days  
Heating Degree Days 0 0  
Month to date heating degree days 0 0  
Since 1 June heating degree days 0 0  
Since 1 July heating degree days 0 0  
Cooling Degree Days 23 19  
Month to date cooling degree days 602 570  
Year to date cooling degree days 3268 3129  
Since 1 June cooling degree days 1733 1711  
Growing Degree Days 36 (Base 50)    
Moisture  
Dew Point 76 °F    
Average Humidity 70    
Maximum Humidity 80    
Minimum Humidity 60    
Precipitation  
Precipitation 0.01 in 0.27 in 4.79 in (1953)
Month to date precipitation 5.33 6.89  
Year to date precipitation 43.75 40.52  
Snow  
Snow 0.00 in - - ()
Month to date snowfall 0.0  
Since 1 June snowfall 0.0  
Since 1 July snowfall 0.0  
Snow Depth 0.00 in    
Sea Level Pressure  
Sea Level Pressure 30.03 in    
Wind  
Wind Speed 9 mph (SE)    
Max Wind Speed 17 mph    
Max Gust Speed 24 mph    
Visibility 10 miles    
Events      
T = Trace of Precipitation, MM = Missing Value Source: NWS Daily Summary

Daily Weather History Graph

Daily Weather History Graph

Search for Another Location

Airport:

Trip Planner

Search our weather history database for the weather conditions in past years. The results will help you decide how hot, cold, wet, or windy it might be!

Date:

Astronomy

Aug. 29, 2014 Rise Set
Actual Time 6:59 AM EDT 7:43 PM EDT
Civil Twilight 6:35 AM EDT 8:06 PM EDT
Nautical Twilight 6:08 AM EDT 8:34 PM EDT
Astronomical Twilight 5:40 AM EDT 9:02 PM EDT
Moon 10:21 AM EDT (8/29) 10:07 PM EDT (8/29)
Length of Visible Light 13h 30m
Length of Day
12h 43m
Waxing Crescent, 15% of the Moon is Illuminated
Aug 29
Waxing Crescent
Sep 2
First Quarter
Sep 8
Full
Sep 15
Last Quarter
Sep 24
New

Hourly Weather History & Observations

Time (EDT) Temp. Heat Index Dew Point Humidity Pressure Visibility Wind Dir Wind Speed Gust Speed Precip Events Conditions
12:53 AM 84.9 °F 95.3 °F 77.0 °F 77% 30.02 in 10.0 mi South 3.5 mph - N/A   Scattered Clouds
1:53 AM 84.0 °F 92.6 °F 75.9 °F 76% 30.00 in 10.0 mi SSE 4.6 mph - N/A   Scattered Clouds
2:53 AM 82.9 °F 90.8 °F 75.9 °F 79% 29.99 in 10.0 mi South 3.5 mph - N/A   Scattered Clouds
3:53 AM 82.9 °F 90.2 °F 75.0 °F 77% 29.98 in 10.0 mi South 3.5 mph - N/A   Scattered Clouds
4:53 AM 82.9 °F 90.2 °F 75.0 °F 77% 30.00 in 10.0 mi Calm Calm - N/A   Scattered Clouds
5:53 AM 84.0 °F 92.6 °F 75.9 °F 76% 30.01 in 10.0 mi Calm Calm - N/A   Scattered Clouds
6:53 AM 82.9 °F 90.8 °F 75.9 °F 79% 30.01 in 10.0 mi Calm Calm - N/A   Mostly Cloudy
7:53 AM 84.0 °F 93.7 °F 77.0 °F 79% 30.03 in 10.0 mi ESE 5.8 mph - 0.01 in   Mostly Cloudy
8:53 AM 88.0 °F 100.2 °F 77.0 °F 70% 30.04 in 10.0 mi SSE 11.5 mph - N/A   Mostly Cloudy
9:53 AM 89.1 °F 100.2 °F 75.9 °F 65% 30.04 in 10.0 mi SSE 12.7 mph - N/A   Mostly Cloudy
10:53 AM 90.0 °F 102.5 °F 77.0 °F 65% 30.05 in 10.0 mi SE 15.0 mph - N/A   Scattered Clouds
11:48 AM 91.0 °F 102.9 °F 75.9 °F 61% 30.06 in 10.0 mi ESE 16.1 mph - N/A   Mostly Cloudy
12:53 PM 91.0 °F 101.6 °F 75.0 °F 59% 30.04 in 10.0 mi ESE 16.1 mph - N/A   Scattered Clouds
1:53 PM 91.0 °F 101.6 °F 75.0 °F 59% 30.04 in 10.0 mi ESE 15.0 mph - N/A   Partly Cloudy
2:53 PM 91.0 °F 102.9 °F 75.9 °F 61% 30.03 in 10.0 mi SE 15.0 mph 20.7 mph N/A   Partly Cloudy
3:53 PM 91.0 °F 101.6 °F 75.0 °F 59% 30.01 in 10.0 mi ESE 10.4 mph - N/A   Mostly Cloudy
4:53 PM 90.0 °F 101.3 °F 75.9 °F 63% 30.00 in 10.0 mi SE 15.0 mph - N/A   Mostly Cloudy
5:53 PM 89.1 °F 100.2 °F 75.9 °F 65% 30.01 in 10.0 mi ESE 13.8 mph - N/A   Scattered Clouds
6:53 PM 88.0 °F 98.5 °F 75.9 °F 67% 30.02 in 10.0 mi ESE 11.5 mph - N/A   Partly Cloudy
7:53 PM 87.1 °F 97.3 °F 75.9 °F 69% 30.04 in 10.0 mi ESE 10.4 mph - N/A   Partly Cloudy
8:53 PM 87.1 °F 96.3 °F 75.0 °F 67% 30.06 in 10.0 mi East 11.5 mph - N/A   Partly Cloudy
9:53 PM 86.0 °F 96.0 °F 75.9 °F 72% 30.07 in 10.0 mi ESE 10.4 mph - N/A   Partly Cloudy
10:53 PM 86.0 °F 96.0 °F 75.9 °F 72% 30.09 in 10.0 mi East 9.2 mph - N/A   Scattered Clouds
11:53 PM 87.1 °F 97.3 °F 75.9 °F 69% 30.10 in 10.0 mi ESE 11.5 mph - N/A   Mostly Cloudy